Location: Appingedam
(53.3222°N, 6.8488°E)
Time: 19:48:58
(UTC+00:00)

USA 186 - Pass Details

Date: 15 May 2026
Orbit: 338 x 359 km, 97.0° (Epoch: 19 May)

Event Time Altitude Azimuth Distance (km) Brightness Sun altitude
Exits shadow 21:12:57 - 211° (SSW) 1,709 4.6 -11.9°
Reaches altitude 10° 21:14:18 10° 228° (SW) 1,282 4.1 -12.0°
Maximum altitude 21:16:02 15° 268° (W) 1,029 4.1 -12.2°
Drops below altitude 10° 21:17:48 10° 307° (NW) 1,297 5.4 -12.3°
Sets 21:20:15 0° 332° (NNW) 2,142 7.5 -12.5°
